EW9994 Weather Reports


time (UTC)temp
C
wind
direction
speed
KPH
gust
KPH
rain 1hr
cm
rain 24hr
cm
rain mn
cm
humidity
%
barometer
mb
20260905171408 28 214 0.0 4.8 0.00 0.00 0.00 64 1017.5
20260905170907 28 214 1.6 4.8 0.00 0.00 0.00 64 1017.4
20260905164407 30 195 6.4 12.9 0.00 0.00 0.00 61 1017.3
20260905163907 30 204 6.4 14.5 0.00 0.00 0.00 60 1017.3
20260905153407 31 250 3.2 11.3 0.00 0.00 0.00 53 1017.1
20260905151907 31 203 6.4 11.3 0.00 0.00 0.00 54 1017.2
20260905151406 31 247 4.8 12.9 0.00 0.00 0.00 54 1017.2
20260905150907 31 176 6.4 11.3 0.00 0.00 0.00 53 1017.1
20260905150407 31 187 6.4 19.3 0.00 0.00 0.00 55 1017.1
20260905144907 31 207 4.8 11.3 0.00 0.00 0.00 53 1017.1
20260905143907 31 246 4.8 14.5 0.00 0.00 0.00 54 1017.3
20260905143406 31 241 4.8 14.5 0.00 0.00 0.00 54 1017.3
20260905133906 31 205 8.0 16.1 0.00 0.00 0.00 56 1017.7
20260905133406 30 221 11.3 19.3 0.00 0.00 0.00 56 1017.7
20260905130906 30 176 11.3 19.3 0.00 0.00 0.00 55 1018.0
20260905124906 30 238 8.0 19.3 0.00 0.00 0.00 58 1018.2
20260905120907 30 188 14.5 19.3 0.00 0.00 0.00 62 1018.3
20260905114406 29 185 9.7 16.1 0.00 0.00 0.00 61 1018.8
20260905113906 29 217 11.3 19.3 0.00 0.00 0.00 61 1018.8
20260905110907 29 234 9.7 19.3 0.00 0.00 0.00 59 1018.8
20260905110406 29 209 9.7 19.3 0.00 0.00 0.00 61 1018.8
20260905104906 28 186 8.0 16.1 0.00 0.00 0.00 60 1018.9
20260905104406 28 215 4.8 12.9 0.00 0.00 0.00 61 1018.9
20260905101406 27 213 6.4 9.7 0.00 0.00 0.00 63 1019.0
20260905100406 27 276 1.6 8.0 0.00 0.00 0.00 65 1019.1
20260905094906 27 248 1.6 8.0 0.00 0.00 0.00 63 1019.2
20260905093906 27 243 1.6 4.8 0.00 0.00 0.00 66 1019.2
20260905093411 26 243 1.6 4.8 0.00 0.00 0.00 67 1019.2
20260905091406 26 233 3.2 9.7 0.00 0.00 0.00 70 1019.3
20260905090906 26 222 4.8 8.0 0.00 0.00 0.00 68 1019.3
20260905090406 26 197 4.8 11.3 0.00 0.00 0.00 69 1019.2
20260905084406 25 200 3.2 4.8 0.00 0.00 0.00 71 1019.1
20260905083906 25 196 3.2 8.0 0.00 0.00 0.00 71 1019.0
20260905083406 25 128 4.8 9.7 0.00 0.00 0.00 72 1019.0
20260905081406 24 112 0.0 3.2 0.00 0.00 0.00 75 1019.0
20260905074406 23 121 1.6 4.8 0.00 0.00 0.00 78 1019.0
20260905073906 22 231 1.6 4.8 0.00 0.00 0.00 78 1019.0
20260905073406 22 197 1.6 3.2 0.00 0.00 0.00 79 1018.8
20260905071406 22 186 1.6 4.8 0.00 0.00 0.00 80 1018.8
20260905070406 21 133 0.0 0.0 0.00 0.00 0.00 81 1018.6
20260905064906 21 26 0.0 0.0 0.00 0.00 0.00 82 1018.5
20260905064406 21 25 0.0 0.0 0.00 0.00 0.00 82 1018.6
20260905063406 20 26 0.0 8.0 0.00 0.00 0.00 83 1018.6
20260905061906 19 26 3.2 4.8 0.00 0.00 0.00 82 1018.9
20260905061406 19 26 3.2 4.8 0.00 0.00 0.00 82 1018.7
20260905060406 18 26 3.2 8.0 0.00 0.00 0.00 82 1018.6
20260905054406 18 26 3.2 4.8 0.00 0.00 0.00 83 1018.7
20260905053906 18 26 3.2 4.8 0.00 0.00 0.00 83 1018.6
20260905051906 18 26 3.2 9.7 0.00 0.00 0.00 83 1018.5
20260905051406 18 25 4.8 9.7 0.00 0.00 0.00 83 1018.4
20260905050406 18 25 3.2 4.8 0.00 0.00 0.00 83 1018.3
20260905044906 18 26 3.2 8.0 0.00 0.00 0.00 83 1018.2
20260905044406 18 25 8.0 12.9 0.00 0.00 0.00 83 1018.2
20260905043905 18 25 4.8 11.3 0.00 0.00 0.00 83 1018.3
20260905041906 18 25 4.8 8.0 0.00 0.00 0.00 83 1018.3
20260905040405 18 25 4.8 9.7 0.00 0.00 0.00 83 1018.3
20260905034906 18 25 3.2 4.8 0.00 0.00 0.00 83 1018.3
20260905034406 18 25 4.8 8.0 0.00 0.00 0.00 83 1018.3
20260905033905 18 25 3.2 9.7 0.00 0.00 0.00 83 1018.3
20260905033405 18 25 1.6 9.7 0.00 0.00 0.00 83 1018.4
20260905031905 19 24 4.8 12.9 0.00 0.00 0.00 83 1018.3
20260905030906 18 25 8.0 12.9 0.00 0.00 0.00 83 1018.3
20260905030406 19 25 8.0 11.3 0.00 0.00 0.00 83 1018.4
20260905024405 19 25 6.4 9.7 0.00 0.00 0.00 82 1018.3
20260905023905 19 25 4.8 8.0 0.00 0.00 0.00 82 1018.4
20260905023406 19 25 1.6 11.3 0.00 0.00 0.00 82 1018.4
20260905021906 19 25 3.2 9.7 0.00 0.00 0.00 82 1018.3
20260905014905 20 25 6.4 9.7 0.00 0.00 0.00 81 1018.3
20260905013405 20 25 8.0 8.0 0.00 0.00 0.00 81 1018.3
20260905011905 20 25 8.0 12.9 0.00 0.00 0.00 80 1018.2
20260905010406 20 25 4.8 12.9 0.00 0.00 0.00 79 1018.3
20260905004405 20 25 3.2 11.3 0.00 0.00 0.00 79 1018.3
20260905001905 20 25 8.0 14.5 0.00 0.00 0.00 79 1018.4
20260905001408 20 26 11.3 16.1 0.00 0.00 0.00 78 1018.4
20260904234905 20 26 4.8 11.3 0.00 0.00 0.00 77 1018.8
20260904234405 20 26 6.4 11.3 0.00 0.00 0.00 77 1018.7
20260904233905 20 26 9.7 12.9 0.00 0.00 0.00 77 1018.8
20260904233406 20 25 8.0 12.9 0.00 0.00 0.00 77 1018.8
20260904230906 21 26 8.0 14.5 0.00 0.00 0.00 75 1018.8
20260904224905 21 23 9.7 16.1 0.00 0.00 0.00 75 1018.8
20260904224406 21 25 9.7 16.1 0.00 0.00 0.00 74 1018.9
20260904223906 21 26 8.0 14.5 0.00 0.00 0.00 74 1018.8
20260904223405 21 26 8.0 16.1 0.00 0.00 0.00 74 1018.8
20260904221905 21 25 9.7 16.1 0.00 0.00 0.00 73 1018.8
20260904220905 21 27 4.8 12.9 0.00 0.00 0.00 74 1018.8
20260904220405 21 27 8.0 14.5 0.00 0.00 0.00 73 1018.8
20260904214405 22 27 8.0 16.1 0.00 0.00 0.00 71 1018.9
20260904213906 22 27 9.7 16.1 0.00 0.00 0.00 71 1018.9
20260904211405 22 27 9.7 14.5 0.00 0.00 0.00 68 1018.8